COSMOS 1275 DEB

Satellite information

Favourite Embed

Satellite Type and Status

DEBRISIN ORBIT

Key statistics

Satellite COSMOS 1275 DEB at a glance.

Uptime

16264

Days in orbit

Revolutions

≈ 14.2

Per day

Orbit

LEO

Low Earth Orbit

Inclination

82.8

Latest

Satellite identification and parameters

Extended collection of information and parameters for COSMOS 1275 DEB.

Object identification

Identified? True

Debris? True

Object name: COSMOS 1275 DEB

International designator: 1981-053GV

Object number (NORAD): 13801

Object ID (CCSDS): 13801

Country: COMMONWEALTH OF INDEPENDENT STATES (CIS)

Current information (Y/N): Y

RCS size: SMALL

Orbital parameters

Period: 101.416 minutes

Inclination: 82.796 deg

SMA: 7203.826 km

Apoapsis: 858.839 km

Periapsis: 792.543 km

RAAN: 137.0113 deg

Eccentricy: 0.00460139

Argument of periapsis: 152.4524 deg

Mean anomaly: 207.9111 deg

Mean motion: 14.19900626 rev/day

Mean motion (dot): 0.00006733 rev/day2

B* drag term: 0.0031307408 1/REarth

Two-line elements (TLE)

Creation date: Dec. 12, 2025, 10:14 a.m.

Reference frame: TEME

Reference center: EARTH

Epoch: Dec. 12, 2025, 3:51 a.m. UTC

TLE line 0: 0 COSMOS 1275 DEB

TLE line 1: 1 13801U 81053GV 25346.16074006 .00006733 00000-0 31307-2 0 9999

TLE line 2: 2 13801 82.7960 137.0113 0046014 152.4524 207.9111 14.19900626193047

Live tracking on map

Real-time ground track for satellite COSMOS 1275 DEB.

In-orbit conjunctions

A list of the most updated potential collisions computed for object COSMOS 1275 DEB.

Target Orbit TCA Probability of collision Miss distance Type
FENGYUN 1C DEB SSO 2025-11-19 08:14:22 0.0001037175 118.0 (m) DEBRIS
DELTA 1 DEB SSO 2025-02-19 10:39:28 0.0001076885 127.0 (m) DEBRIS

Associated space launch

Navigation satellite providing location information for the Tsiklon-B navigation system

COSMOS 1275 DEB was lifted into orbit during the mission ‘Kosmos-3M | Parus 27’, on board a Kosmos-3M space rocket.

The launch took place on June 4, 1981, 3:41 p.m. from 132/2.

For more information about the launch, click the button.

Launch to space Kosmos-3M | Parus 27
Kosmos-3M | Parus 27

Agency: N/A

Status: Launch Successful

Launch date: June 4, 1981, 3:41 p.m. UTC

Rocket: Kosmos-3M

Launch pad: 132/2

Location: Plesetsk Cosmodrome, Russian Federation

...

Latest news about this satellite

There are no fresh news available about this satellite. Check back as we update our databases every day.


Newsletter sign-up

Weekly statistics, charts and insights to help you stay on top of the space industry.